Glasgow, MT

6:06 PM MST on December 13, 2017 (GMT -0700)
Wokal-Glasgow International

Weather History for KGGW - June, 2013

Change the Weather History Date:

Wednesday, June 19, 2013

  Actual Average Record
Temperature  
Mean Temperature 73 °F 65 °F  
Max Temperature 88 °F 78 °F 98 °F (1974)
Min Temperature 57 °F 52 °F 40 °F (1954)
Degree Days  
Heating Degree Days 0 3  
Month to date heating degree days 77 84  
Since 1 June heating degree days 77 84  
Since 1 July heating degree days 8571 8415  
Cooling Degree Days 8 3  
Month to date cooling degree days 15 36  
Year to date cooling degree days 24 53  
Since 1 June cooling degree days 15 36  
Growing Degree Days 24 (Base 50)    
Moisture  
Dew Point 58 °F    
Average Humidity 59    
Maximum Humidity 84    
Minimum Humidity 34    
Precipitation  
Precipitation 0.46 in 0.07 in 1.02 in (1921)
Month to date precipitation 3.33 1.54  
Year to date precipitation 10.60 5.36  
Snow  
Snow 0.00 in 0.00 in 0.00 in (2002)
Month to date snowfall 0.0 0.0  
Since 1 June snowfall 0.0 0.0  
Since 1 July snowfall 62.3 34.8  
Snow Depth 0.00 in    
Sea Level Pressure  
Sea Level Pressure 29.62 in    
Wind  
Wind Speed 21 mph (East)    
Max Wind Speed 40 mph    
Max Gust Speed 58 mph    
Visibility 9 miles    
Events Rain , Thunderstorm    
T = Trace of Precipitation, MM = Missing Value Source: NWS Daily Summary

Daily Weather History Graph

Daily Weather History Graph

Search for Another Location

Airport or City:

Trip Planner

Search our weather history database for the weather conditions in past years. The results will help you decide how hot, cold, wet, or windy it might be!

Date:

Astronomy

Jun. 19, 2013 Rise Set
Actual Time 5:05 AM MDT 9:10 PM MDT
Civil Twilight 4:23 AM MDT 9:51 PM MDT
Nautical Twilight 3:25 AM MDT 10:50 PM MDT
Astronomical Twilight 1:40 AM MDT 12:36 AM MDT
Moon 4:53 PM MDT (6/19) 2:08 AM MDT (6/19)
Length of Visible Light 17h 27m
Length of Day
16h 04m
Waxing Gibbous, 81% of the Moon is Illuminated
Jun 19
Waxing Gibbous
Jun 23
Full
Jun 29
Last Quarter
Jul 8
New
Jul 15
First Quarter

Hourly Weather History & Observations

Time (MDT) Temp. Heat Index Dew Point Humidity Pressure Visibility Wind Dir Wind Speed Gust Speed Precip Events Conditions
12:53 AM 69.1 °F - 57.0 °F 65% 29.72 in 10.0 mi East 16.1 mph - N/A   Clear
1:53 AM 66.9 °F - 57.0 °F 70% 29.70 in 10.0 mi East 16.1 mph - N/A   Clear
2:53 AM 66.0 °F - 57.0 °F 73% 29.68 in 10.0 mi East 17.3 mph - N/A   Clear
3:53 AM 64.0 °F - 57.0 °F 78% 29.69 in 10.0 mi East 13.8 mph - N/A   Clear
4:53 AM 63.0 °F - 57.0 °F 81% 29.69 in 10.0 mi East 13.8 mph - N/A   Clear
5:53 AM 63.0 °F - 57.9 °F 84% 29.69 in 10.0 mi East 16.1 mph - N/A   Clear
6:53 AM 64.9 °F - 59.0 °F 81% 29.68 in 10.0 mi East 16.1 mph - N/A   Clear
7:53 AM 68.0 °F - 59.0 °F 73% 29.67 in 10.0 mi East 19.6 mph - N/A   Clear
8:53 AM 71.1 °F - 60.1 °F 68% 29.67 in 10.0 mi East 17.3 mph - N/A   Clear
9:53 AM 73.9 °F - 61.0 °F 64% 29.66 in 10.0 mi East 18.4 mph 24.2 mph N/A   Clear
10:53 AM 77.0 °F - 62.1 °F 60% 29.64 in 10.0 mi East 17.3 mph 24.2 mph N/A   Clear
11:53 AM 81.0 °F 81.9 °F 62.1 °F 52% 29.61 in 10.0 mi East 20.7 mph 27.6 mph N/A   Clear
12:53 PM 82.9 °F 83.2 °F 60.1 °F 46% 29.59 in 10.0 mi East 20.7 mph 31.1 mph N/A   Clear
1:53 PM 84.9 °F 84.4 °F 59.0 °F 41% 29.57 in 10.0 mi ESE 31.1 mph 36.8 mph N/A   Clear
2:53 PM 87.1 °F 85.7 °F 55.9 °F 35% 29.55 in 10.0 mi ESE 25.3 mph 40.3 mph N/A   Clear
3:53 PM 87.1 °F 85.9 °F 57.0 °F 36% 29.53 in 10.0 mi ESE 28.8 mph 42.6 mph N/A   Clear
4:53 PM 86.0 °F 84.7 °F 55.9 °F 36% 29.52 in 10.0 mi ESE 23.0 mph 36.8 mph N/A   Clear
5:53 PM 86.0 °F 84.9 °F 57.0 °F 37% 29.52 in 10.0 mi ESE 28.8 mph 35.7 mph N/A   Clear
6:53 PM 82.9 °F 82.1 °F 55.9 °F 39% 29.52 in 10.0 mi ESE 25.3 mph 36.8 mph N/A   Clear
7:53 PM 80.1 °F 80.6 °F 57.9 °F 47% 29.52 in 10.0 mi East 16.1 mph - N/A   Clear
8:53 PM 77.0 °F - 57.9 °F 52% 29.48 in 10.0 mi East 24.2 mph 31.1 mph N/A   Clear
9:53 PM 75.9 °F - 57.9 °F 54% 29.52 in 10.0 mi East 25.3 mph 34.5 mph N/A   Clear
10:53 PM 73.9 °F - 57.0 °F 55% 29.52 in 10.0 mi East 26.5 mph 32.2 mph N/A   Clear
11:31 PM 69.8 °F - 55.4 °F 60% 29.67 in 10.0 mi West 29.9 mph 46.0 mph N/A   Scattered Clouds
11:40 PM 64.4 °F - 51.8 °F 64% 29.69 in 9.0 mi WNW 34.5 mph 57.5 mph N/A   Mostly Cloudy
11:49 PM 59.0 °F - 55.4 °F 88% 29.68 in 3.0 mi WNW 34.5 mph 41.4 mph 0.04 in Rain , Thunderstorm Heavy Rain
11:53 PM 59.0 °F - 55.0 °F 87% 29.65 in 4.0 mi WNW 25.3 mph 41.4 mph 0.04 in Rain , Thunderstorm Light Rain